RYR7 EGSS-EKCH

Flight info

Callsign RYR7
Flight time 1h 13m
Altitude 37000
Route CLN P44 SOMVA DCT MAVAS DCT ANDIK DCT BEDUM DCT JUIST DCT DOSUR P729 TUDLO
Aircraft B38M/M-SDE1FGHILORVWXY/HB1

Departure

Time 2026-04-24 07:32
Airport London Stansted Airport (EGSS)

Arrival

Time 2026-04-24 08:45
Airport Copenhagen Kastrup Airport (EKCH)
Time Latitude Longitude Altitude Speed Heading
2026-04-24 07:03 51.89128 0.25521 355 ft 0 kts 55°
2026-04-24 07:23 51.89117 0.25499 361 ft 4 kts 41°
2026-04-24 07:24 51.89096 0.25483 364 ft 4 kts 351°
2026-04-24 07:24 51.89082 0.25495 358 ft 0 kts 312°
2026-04-24 07:28 51.89089 0.25481 362 ft 3 kts 312°
2026-04-24 07:28 51.89108 0.25448 358 ft 5 kts 312°
2026-04-24 07:28 51.89140 0.25393 361 ft 8 kts 313°
2026-04-24 07:28 51.89179 0.25310 362 ft 10 kts 297°
2026-04-24 07:29 51.89219 0.25211 357 ft 11 kts 317°
2026-04-24 07:29 51.89278 0.25205 357 ft 9 kts 30°
2026-04-24 07:29 51.89334 0.25268 355 ft 9 kts 13°
2026-04-24 07:29 51.89378 0.25221 356 ft 9 kts 311°
2026-04-24 07:30 51.89439 0.25112 351 ft 14 kts 312°
2026-04-24 07:30 51.89490 0.24991 352 ft 12 kts 269°
2026-04-24 07:30 51.89438 0.24886 355 ft 14 kts 223°
2026-04-24 07:30 51.89360 0.24767 349 ft 17 kts 223°
2026-04-24 07:31 51.89353 0.24756 349 ft 1 kts 223°
2026-04-24 07:31 51.89349 0.24751 349 ft 0 kts 223°
2026-04-24 07:31 51.89336 0.24731 351 ft 16 kts 223°
2026-04-24 07:31 51.89031 0.24271 354 ft 101 kts 223°
2026-04-24 07:32 51.88332 0.23213 353 ft 169 kts 225°
2026-04-24 07:32 51.87428 0.21852 998 ft 183 kts 221°
2026-04-24 07:32 51.86490 0.20476 2025 ft 178 kts 219°
2026-04-24 07:32 51.85419 0.19266 2630 ft 198 kts 199°
2026-04-24 07:33 51.84023 0.19028 3133 ft 218 kts 163°
2026-04-24 07:33 51.82712 0.20199 3659 ft 214 kts 132°
2026-04-24 07:33 51.81855 0.22137 3897 ft 211 kts 114°
2026-04-24 07:33 51.81399 0.24376 3990 ft 210 kts 99°
2026-04-24 07:34 51.81330 0.26704 4008 ft 215 kts 85°
2026-04-24 07:34 51.81462 0.29205 3998 ft 232 kts 85°
2026-04-24 07:34 51.81636 0.31913 4101 ft 251 kts 79°
2026-04-24 07:34 51.82037 0.34700 5119 ft 253 kts 77°
2026-04-24 07:35 51.82431 0.37461 6226 ft 257 kts 77°
2026-04-24 07:35 51.82831 0.40334 7227 ft 263 kts 77°
2026-04-24 07:35 51.83226 0.43227 8245 ft 267 kts 77°
2026-04-24 07:35 51.83625 0.46187 9260 ft 272 kts 77°
2026-04-24 07:36 51.84029 0.49216 10271 ft 277 kts 77°
2026-04-24 07:36 51.84442 0.52327 10975 ft 291 kts 77°
2026-04-24 07:36 51.84880 0.55638 11502 ft 309 kts 77°
2026-04-24 07:36 51.85338 0.59119 12146 ft 322 kts 78°
2026-04-24 07:37 51.85805 0.62675 12976 ft 328 kts 78°
2026-04-24 07:37 51.86279 0.66297 13928 ft 332 kts 78°
2026-04-24 07:37 51.86764 0.70000 14666 ft 339 kts 78°
2026-04-24 07:37 51.87258 0.73787 15491 ft 343 kts 79°
2026-04-24 07:38 51.87753 0.77598 16318 ft 347 kts 79°
2026-04-24 07:38 51.88247 0.81404 17044 ft 353 kts 79°
2026-04-24 07:38 51.88758 0.85348 17815 ft 358 kts 80°
2026-04-24 07:38 51.89270 0.89322 18575 ft 362 kts 79°
2026-04-24 07:39 51.89782 0.93306 19206 ft 367 kts 79°
2026-04-24 07:39 51.90305 0.97382 19866 ft 371 kts 80°
2026-04-24 07:39 51.90831 1.01497 20503 ft 375 kts 79°
2026-04-24 07:39 51.91365 1.05684 21133 ft 379 kts 80°
2026-04-24 07:40 51.91892 1.09827 21746 ft 383 kts 80°
2026-04-24 07:40 51.92432 1.14097 22361 ft 387 kts 80°
2026-04-24 07:40 51.92976 1.18403 22988 ft 391 kts 80°
2026-04-24 07:40 51.93516 1.22695 23589 ft 394 kts 81°
2026-04-24 07:41 51.94065 1.27071 24139 ft 398 kts 81°
2026-04-24 07:41 51.94618 1.31487 24625 ft 401 kts 81°
2026-04-24 07:41 51.95175 1.35961 25114 ft 405 kts 81°
2026-04-24 07:41 51.95729 1.40413 25569 ft 409 kts 82°
2026-04-24 07:42 51.96293 1.44970 26059 ft 412 kts 82°
2026-04-24 07:42 51.96859 1.49556 26499 ft 415 kts 82°
2026-04-24 07:42 51.97422 1.54126 26922 ft 419 kts 82°
2026-04-24 07:42 51.97996 1.58811 27389 ft 422 kts 83°
2026-04-24 07:43 51.98573 1.63530 27831 ft 426 kts 83°
2026-04-24 07:43 51.99279 1.68162 28243 ft 434 kts 72°
2026-04-24 07:43 52.00665 1.72587 28740 ft 440 kts 65°
2026-04-24 07:43 52.02113 1.77003 29081 ft 444 kts 66°
2026-04-24 07:44 52.03563 1.81413 29500 ft 447 kts 66°
2026-04-24 07:44 52.05049 1.85903 29933 ft 450 kts 66°
2026-04-24 07:44 52.06545 1.90415 30315 ft 454 kts 66°
2026-04-24 07:44 52.08032 1.94902 30662 ft 457 kts 66°
2026-04-24 07:45 52.09544 1.99473 30959 ft 460 kts 66°
2026-04-24 07:45 52.11073 2.04105 31262 ft 464 kts 66°
2026-04-24 07:45 52.12585 2.08693 31619 ft 466 kts 66°
2026-04-24 07:45 52.14123 2.13367 31953 ft 468 kts 66°
2026-04-24 07:46 52.15671 2.18084 32292 ft 470 kts 66°
2026-04-24 07:46 52.17203 2.22758 32630 ft 473 kts 66°
2026-04-24 07:46 52.18753 2.27498 32953 ft 475 kts 66°
2026-04-24 07:46 52.20317 2.32287 33284 ft 477 kts 66°
2026-04-24 07:47 52.21860 2.37023 33599 ft 479 kts 66°
2026-04-24 07:47 52.23426 2.41838 33920 ft 482 kts 66°
2026-04-24 07:47 52.24996 2.46676 34280 ft 483 kts 66°
2026-04-24 07:47 52.26575 2.51550 34646 ft 482 kts 66°
2026-04-24 07:48 52.28146 2.56408 35040 ft 481 kts 66°
2026-04-24 07:48 52.29691 2.61193 35399 ft 481 kts 66°
2026-04-24 07:48 52.31037 2.66165 35734 ft 473 kts 78°
2026-04-24 07:48 52.31919 2.71334 36102 ft 472 kts 78°
2026-04-24 07:49 52.32852 2.76500 36389 ft 472 kts 78°
2026-04-24 07:49 52.33756 2.81594 36714 ft 472 kts 78°
2026-04-24 07:49 52.34667 2.86776 37037 ft 472 kts 78°
2026-04-24 07:49 52.35572 2.91945 37325 ft 472 kts 78°
2026-04-24 07:50 52.37369 3.02261 37336 ft 471 kts 78°
2026-04-24 07:50 52.39153 3.12555 37358 ft 472 kts 78°
2026-04-24 07:51 52.40634 3.21163 37341 ft 471 kts 78°
2026-04-24 07:51 52.42697 3.33216 37346 ft 472 kts 79°
2026-04-24 07:52 52.44181 3.41940 37339 ft 477 kts 79°
2026-04-24 07:52 52.45962 3.52466 37327 ft 477 kts 78°
2026-04-24 07:53 52.47720 3.62920 37341 ft 479 kts 78°
2026-04-24 07:53 52.49488 3.73495 37344 ft 479 kts 78°
2026-04-24 07:54 52.51245 3.84072 37346 ft 479 kts 78°
2026-04-24 07:54 52.52979 3.94574 37350 ft 479 kts 79°
2026-04-24 07:55 52.54717 4.05170 37347 ft 480 kts 78°
2026-04-24 07:55 52.56442 4.15747 37346 ft 480 kts 78°
2026-04-24 07:56 52.58166 4.26382 37344 ft 480 kts 78°
2026-04-24 07:56 52.59871 4.36971 37347 ft 480 kts 79°
2026-04-24 07:57 52.61565 4.47559 37341 ft 480 kts 79°
2026-04-24 07:57 52.63259 4.58217 37342 ft 480 kts 79°
2026-04-24 07:58 52.64933 4.68813 37337 ft 480 kts 79°
2026-04-24 07:58 52.66610 4.79500 37339 ft 480 kts 79°
2026-04-24 07:59 52.68266 4.90115 37341 ft 481 kts 79°
2026-04-24 07:59 52.69916 5.00766 37336 ft 481 kts 79°
2026-04-24 08:00 52.71576 5.11537 37335 ft 483 kts 79°
2026-04-24 08:00 52.73222 5.22235 37327 ft 483 kts 77°
2026-04-24 08:01 52.74479 5.27409 37299 ft 487 kts 62°
2026-04-24 08:01 52.76428 5.31944 37341 ft 489 kts 52°
2026-04-24 08:01 52.80626 5.40856 37336 ft 491 kts 53°
2026-04-24 08:02 52.84790 5.49743 37314 ft 491 kts 53°
2026-04-24 08:02 52.88984 5.58716 37304 ft 490 kts 53°
2026-04-24 08:03 52.93139 5.67638 37311 ft 490 kts 53°
2026-04-24 08:03 52.97287 5.76576 37311 ft 490 kts 53°
2026-04-24 08:04 53.01458 5.85598 37309 ft 490 kts 53°
2026-04-24 08:04 53.05593 5.94572 37312 ft 490 kts 53°
2026-04-24 08:05 53.09722 6.03564 37313 ft 490 kts 53°
2026-04-24 08:05 53.13865 6.12620 37296 ft 490 kts 53°
2026-04-24 08:06 53.17979 6.21645 37301 ft 489 kts 53°
2026-04-24 08:06 53.22099 6.30715 37298 ft 489 kts 53°
2026-04-24 08:07 53.26178 6.39728 37293 ft 489 kts 53°
2026-04-24 08:07 53.30270 6.48798 37290 ft 489 kts 53°
2026-04-24 08:08 53.34396 6.57926 37284 ft 489 kts 50°
2026-04-24 08:09 53.41802 6.69622 37284 ft 488 kts 41°
2026-04-24 08:09 53.46784 6.77309 37283 ft 487 kts 41°
2026-04-24 08:10 53.51766 6.85015 37277 ft 486 kts 41°
2026-04-24 08:10 53.56682 6.92781 37269 ft 487 kts 44°
2026-04-24 08:11 53.61486 7.00898 37283 ft 488 kts 43°
2026-04-24 08:11 53.66266 7.08941 37267 ft 488 kts 43°
2026-04-24 08:12 53.71056 7.17021 37269 ft 488 kts 44°
2026-04-24 08:12 53.75865 7.25160 37263 ft 488 kts 44°
2026-04-24 08:13 53.80644 7.33278 37256 ft 487 kts 43°
2026-04-24 08:13 53.85402 7.41388 37263 ft 486 kts 43°
2026-04-24 08:14 53.90179 7.49557 37263 ft 486 kts 43°
2026-04-24 08:14 53.94923 7.57698 37255 ft 486 kts 43°
2026-04-24 08:15 53.99664 7.65862 37252 ft 486 kts 43°
2026-04-24 08:15 54.04387 7.74024 37253 ft 486 kts 43°
2026-04-24 08:16 54.09133 7.82253 37251 ft 486 kts 43°
2026-04-24 08:16 54.13851 7.90464 37234 ft 486 kts 43°
2026-04-24 08:17 54.18572 7.98704 37244 ft 485 kts 43°
2026-04-24 08:17 54.23263 8.06926 37241 ft 484 kts 42°
2026-04-24 08:18 54.27964 8.15191 37211 ft 483 kts 42°
2026-04-24 08:18 54.32628 8.23419 37214 ft 483 kts 42°
2026-04-24 08:19 54.37298 8.31685 37210 ft 483 kts 42°
2026-04-24 08:19 54.41985 8.40014 37195 ft 483 kts 43°
2026-04-24 08:20 54.46651 8.48331 37209 ft 483 kts 42°
2026-04-24 08:20 54.51283 8.56620 37193 ft 483 kts 42°
2026-04-24 08:21 54.55937 8.64975 37182 ft 482 kts 42°
2026-04-24 08:21 54.60580 8.73340 37179 ft 481 kts 42°
2026-04-24 08:22 54.65186 8.81669 37178 ft 481 kts 42°
2026-04-24 08:22 54.69790 8.90022 37185 ft 481 kts 42°
2026-04-24 08:23 54.74422 8.98454 37166 ft 481 kts 42°
2026-04-24 08:23 54.79027 9.06863 37164 ft 481 kts 42°
2026-04-24 08:24 54.83616 9.15269 37155 ft 482 kts 42°
2026-04-24 08:24 54.88119 9.23953 37156 ft 483 kts 44°
2026-04-24 08:25 54.92544 9.32664 37169 ft 482 kts 44°
2026-04-24 08:25 54.96977 9.41398 37141 ft 481 kts 44°
2026-04-24 08:26 55.01400 9.50144 37137 ft 481 kts 44°
2026-04-24 08:26 55.05827 9.58926 37131 ft 481 kts 44°
2026-04-24 08:27 55.10067 9.67947 37111 ft 487 kts 56°
2026-04-24 08:27 55.11429 9.73388 37137 ft 492 kts 69°
2026-04-24 08:27 55.12504 9.79099 37117 ft 495 kts 69°
2026-04-24 08:28 55.14616 9.90545 36334 ft 496 kts 69°
2026-04-24 08:28 55.15551 9.96371 35334 ft 506 kts 76°
2026-04-24 08:28 55.16237 10.02368 34870 ft 499 kts 75°
2026-04-24 08:28 55.16968 10.08315 34179 ft 498 kts 75°
2026-04-24 08:29 55.17704 10.14189 33375 ft 498 kts 75°
2026-04-24 08:29 55.18449 10.20128 32611 ft 497 kts 75°
2026-04-24 08:29 55.19184 10.25989 31856 ft 497 kts 75°
2026-04-24 08:29 55.19923 10.31916 30997 ft 491 kts 75°
2026-04-24 08:30 55.20650 10.37760 29477 ft 492 kts 75°
2026-04-24 08:30 55.21371 10.43580 27794 ft 494 kts 75°
2026-04-24 08:30 55.22100 10.49489 26099 ft 494 kts 75°
2026-04-24 08:30 55.22825 10.55400 24383 ft 495 kts 75°
2026-04-24 08:31 55.23545 10.61291 22703 ft 492 kts 75°
2026-04-24 08:31 55.24254 10.67119 21451 ft 492 kts 75°
2026-04-24 08:31 55.24964 10.72978 20527 ft 484 kts 75°
2026-04-24 08:31 55.25649 10.78649 19652 ft 478 kts 75°
2026-04-24 08:32 55.26333 10.84345 18894 ft 472 kts 75°
2026-04-24 08:32 55.27004 10.89956 18186 ft 465 kts 75°
2026-04-24 08:32 55.27661 10.95465 17444 ft 458 kts 75°
2026-04-24 08:32 55.28300 11.00848 16750 ft 450 kts 75°
2026-04-24 08:33 55.28934 11.06213 16104 ft 443 kts 75°
2026-04-24 08:33 55.29555 11.11482 15482 ft 436 kts 75°
2026-04-24 08:33 55.30153 11.16585 14889 ft 430 kts 75°
2026-04-24 08:33 55.30753 11.21722 14318 ft 423 kts 75°
2026-04-24 08:34 55.31335 11.26724 13760 ft 417 kts 74°
2026-04-24 08:34 55.31910 11.31685 13149 ft 412 kts 74°
2026-04-24 08:34 55.32477 11.36591 12584 ft 406 kts 74°
2026-04-24 08:34 55.33032 11.41415 12063 ft 399 kts 74°
2026-04-24 08:35 55.33577 11.46169 11573 ft 393 kts 74°
2026-04-24 08:35 55.34104 11.50785 11177 ft 385 kts 74°
2026-04-24 08:35 55.34625 11.55365 10839 ft 375 kts 74°
2026-04-24 08:35 55.35130 11.59816 10540 ft 366 kts 74°
2026-04-24 08:36 55.35620 11.64154 10284 ft 356 kts 74°
2026-04-24 08:36 55.36089 11.68318 10042 ft 345 kts 74°
2026-04-24 08:36 55.36544 11.72371 9689 ft 328 kts 74°
2026-04-24 08:36 55.36975 11.76221 9311 ft 314 kts 73°
2026-04-24 08:37 55.37389 11.79932 8934 ft 306 kts 74°
2026-04-24 08:37 55.37795 11.83573 8552 ft 305 kts 74°
2026-04-24 08:37 55.38201 11.87234 8204 ft 303 kts 74°
2026-04-24 08:37 55.38598 11.90823 8137 ft 291 kts 74°
2026-04-24 08:38 55.38851 11.93113 8120 ft 283 kts 74°
2026-04-24 08:38 55.39345 11.97605 7627 ft 284 kts 74°
2026-04-24 08:38 55.39720 12.01018 7164 ft 281 kts 74°
2026-04-24 08:38 55.39963 12.03246 6868 ft 278 kts 75°
2026-04-24 08:39 55.40455 12.07737 6272 ft 281 kts 75°
2026-04-24 08:39 55.40701 12.09997 5991 ft 283 kts 75°
2026-04-24 08:39 55.41071 12.13407 5597 ft 284 kts 75°
2026-04-24 08:39 55.41438 12.16795 5230 ft 285 kts 75°
2026-04-24 08:40 55.41812 12.20249 4834 ft 287 kts 75°
2026-04-24 08:40 55.42185 12.23718 4457 ft 286 kts 75°
2026-04-24 08:40 55.42555 12.27154 4159 ft 284 kts 76°
2026-04-24 08:40 55.42916 12.30517 3856 ft 282 kts 75°
2026-04-24 08:41 55.43445 12.35033 3432 ft 277 kts 67°
2026-04-24 08:41 55.44003 12.37019 3204 ft 271 kts 51°
2026-04-24 08:41 55.45329 12.39288 2905 ft 262 kts 32°
2026-04-24 08:41 55.46769 12.41213 2730 ft 256 kts 36°
2026-04-24 08:42 55.48097 12.43215 2548 ft 250 kts 38°
2026-04-24 08:42 55.49366 12.45183 2548 ft 232 kts 37°
2026-04-24 08:42 55.50547 12.46999 2291 ft 218 kts 37°
2026-04-24 08:42 55.51628 12.48661 2023 ft 198 kts 37°
2026-04-24 08:43 55.52606 12.50169 1764 ft 176 kts 36°
2026-04-24 08:43 55.53469 12.51499 1550 ft 153 kts 36°
2026-04-24 08:43 55.54231 12.52670 1366 ft 141 kts 35°
2026-04-24 08:43 55.54974 12.53809 1152 ft 142 kts 35°
2026-04-24 08:44 55.55722 12.54961 956 ft 142 kts 35°
2026-04-24 08:44 55.56467 12.56065 752 ft 143 kts 35°
2026-04-24 08:44 55.57216 12.57279 544 ft 147 kts 40°
2026-04-24 08:44 55.57987 12.58496 346 ft 148 kts 34°
2026-04-24 08:45 55.58762 12.59674 212 ft 146 kts 38°
2026-04-24 08:45 55.59535 12.60850 38 ft 144 kts 38°
2026-04-24 08:45 55.60206 12.61864 20 ft 97 kts 41°
2026-04-24 08:45 55.60556 12.62404 22 ft 45 kts 40°
2026-04-24 08:46 55.60808 12.62778 21 ft 48 kts 28°
2026-04-24 08:46 55.61086 12.62911 20 ft 30 kts 15°
2026-04-24 08:46 55.61254 12.63114 20 ft 31 kts 42°
2026-04-24 08:46 55.61419 12.63377 20 ft 33 kts 41°
2026-04-24 08:47 55.61600 12.63653 20 ft 35 kts 40°
2026-04-24 08:47 55.61790 12.63952 20 ft 37 kts 41°
2026-04-24 08:47 55.61876 12.64077 20 ft 13 kts 31°
2026-04-24 08:47 55.61969 12.64152 20 ft 16 kts 27°
2026-04-24 08:48 55.62080 12.64250 19 ft 19 kts 25°
2026-04-24 08:48 55.62214 12.64358 18 ft 23 kts 24°
2026-04-24 08:48 55.62291 12.64578 21 ft 23 kts 70°
2026-04-24 08:48 55.62332 12.64751 20 ft 16 kts 62°
2026-04-24 08:49 55.62329 12.64927 20 ft 15 kts 121°
2026-04-24 08:49 55.62279 12.65062 20 ft 6 kts 121°
2026-04-24 08:49 55.62279 12.65150 20 ft 9 kts 66°
2026-04-24 08:49 55.62291 12.65265 20 ft 11 kts 90°
2026-04-24 08:50 55.62293 12.65415 20 ft 14 kts 88°
2026-04-24 08:50 55.62300 12.65444 20 ft 1 kts 24°
2026-04-24 08:50 55.62312 12.65430 21 ft 3 kts 306°
2026-04-24 08:50 55.62344 12.65357 20 ft 12 kts 315°
2026-04-24 08:51 55.62419 12.65340 22 ft 12 kts 32°
2026-04-24 08:51 55.62437 12.65394 20 ft 2 kts 73°
2026-04-24 08:51 55.62449 12.65423 20 ft 3 kts 33°
2026-04-24 08:51 55.62483 12.65450 20 ft 3 kts 24°
2026-04-24 08:52 55.62499 12.65463 20 ft 1 kts 23°
2026-04-24 08:52 55.62508 12.65469 20 ft 0 kts 23°